Time,TemperatureF,DewpointF,PressureIn,WindDirection,WindDirectionDegrees,WindSpeedMPH,WindSpeedGustMPH,Humidity,HourlyPrecipIn,Conditions,Clouds,dailyrainin,SoftwareType,DateUTC
2013-05-10 00:03:00,57.5,47.0,29.97,WNW,289,2.0,-999.0,68,-99.99,,,0.00,weatherlink.com 1.10,2013-05-10 04:03:00,
2013-05-10 00:18:00,56.7,47.0,29.97,WNW,290,2.0,-999.0,70,-99.99,,,0.00,weatherlink.com 1.10,2013-05-10 04:18:00,
2013-05-10 00:33:00,57.0,47.0,29.98,West,269,3.0,-999.0,70,-99.99,,,0.00,weatherlink.com 1.10,2013-05-10 04:33:00,
2013-05-10 00:48:00,57.8,47.0,29.97,WNW,300,2.0,-999.0,68,-99.99,,,0.00,weatherlink.com 1.10,2013-05-10 04:48:00,
2013-05-10 01:04:00,57.8,48.0,29.97,SW,236,2.0,-999.0,69,-99.99,,,0.00,weatherlink.com 1.10,2013-05-10 05:04:00,
2013-05-10 01:19:00,57.3,49.0,29.94,SW,223,2.0,-999.0,74,-99.99,,,0.00,weatherlink.com 1.10,2013-05-10 05:19:00,
2013-05-10 01:34:00,56.9,49.0,29.95,WSW,250,4.0,-999.0,76,-99.99,,,0.00,weatherlink.com 1.10,2013-05-10 05:34:00,
2013-05-10 01:49:00,56.2,49.0,29.94,WSW,238,2.0,-999.0,77,-99.99,,,0.00,weatherlink.com 1.10,2013-05-10 05:49:00,
2013-05-10 02:04:00,55.4,49.0,29.93,West,274,2.0,-999.0,80,-99.99,,,0.00,weatherlink.com 1.10,2013-05-10 06:04:00,
2013-05-10 02:19:00,55.7,50.0,29.95,SW,233,2.0,-999.0,80,-99.99,,,0.00,weatherlink.com 1.10,2013-05-10 06:19:00,
2013-05-10 02:34:00,55.9,50.0,29.94,WNW,301,1.0,-999.0,80,-99.99,,,0.00,weatherlink.com 1.10,2013-05-10 06:34:00,
2013-05-10 02:49:00,55.0,50.0,29.94,WNW,302,0.0,-999.0,82,-99.99,,,0.00,weatherlink.com 1.10,2013-05-10 06:49:00,
2013-05-10 03:04:00,54.5,49.0,29.93,SSW,205,0.0,-999.0,83,-99.99,,,0.00,weatherlink.com 1.10,2013-05-10 07:04:00,
2013-05-10 03:19:00,54.1,49.0,29.93,SW,230,1.0,-999.0,84,-99.99,,,0.00,weatherlink.com 1.10,2013-05-10 07:19:00,
2013-05-10 03:34:00,54.4,50.0,29.93,SSW,212,2.0,-999.0,84,-99.99,,,0.00,weatherlink.com 1.10,2013-05-10 07:34:00,
2013-05-10 03:49:00,54.4,50.0,29.92,West,262,2.0,-999.0,84,-99.99,,,0.00,weatherlink.com 1.10,2013-05-10 07:49:00,
2013-05-10 04:04:00,54.2,49.0,29.92,West,279,0.0,-999.0,83,-99.99,,,0.00,weatherlink.com 1.10,2013-05-10 08:04:00,
2013-05-10 04:19:00,54.7,49.0,29.92,WNW,297,3.0,-999.0,80,-99.99,,,0.00,weatherlink.com 1.10,2013-05-10 08:19:00,
2013-05-10 04:34:00,54.5,49.0,29.91,WNW,291,1.0,-999.0,81,-99.99,,,0.00,weatherlink.com 1.10,2013-05-10 08:34:00,
2013-05-10 04:49:00,54.5,48.0,29.90,WNW,303,2.0,-999.0,80,-99.99,,,0.00,weatherlink.com 1.10,2013-05-10 08:49:00,
2013-05-10 05:04:00,54.5,48.0,29.91,WNW,300,0.0,-999.0,79,-99.99,,,0.00,weatherlink.com 1.10,2013-05-10 09:04:00,
2013-05-10 05:19:00,54.4,48.0,29.92,WNW,292,3.0,-999.0,79,-99.99,,,0.00,weatherlink.com 1.10,2013-05-10 09:19:00,
2013-05-10 05:34:00,54.5,48.0,29.92,NW,308,2.0,-999.0,79,-99.99,,,0.00,weatherlink.com 1.10,2013-05-10 09:34:00,
2013-05-10 05:49:00,54.8,49.0,29.91,NW,320,3.0,-999.0,80,-99.99,,,0.00,weatherlink.com 1.10,2013-05-10 09:49:00,
2013-05-10 06:04:00,54.1,48.0,29.90,WSW,254,3.0,-999.0,81,-99.99,,,0.00,weatherlink.com 1.10,2013-05-10 10:04:00,
2013-05-10 06:19:00,53.5,49.0,29.91,WNW,284,0.0,-999.0,83,-99.99,,,0.00,weatherlink.com 1.10,2013-05-10 10:19:00,
2013-05-10 06:34:00,53.8,49.0,29.91,WNW,284,2.0,-999.0,83,-99.99,,,0.00,weatherlink.com 1.10,2013-05-10 10:34:00,
2013-05-10 06:49:00,53.9,49.0,29.92,WNW,298,2.0,-999.0,84,-99.99,,,0.00,weatherlink.com 1.10,2013-05-10 10:49:00,
2013-05-10 07:04:00,54.7,49.0,29.92,WNW,296,0.0,-999.0,82,-99.99,,,0.00,weatherlink.com 1.10,2013-05-10 11:04:00,
2013-05-10 07:19:00,55.0,50.0,29.93,WNW,296,0.0,-999.0,82,-99.99,,,0.00,weatherlink.com 1.10,2013-05-10 11:19:00,
2013-05-10 07:34:00,55.6,50.0,29.93,West,262,0.0,-999.0,81,-99.99,,,0.00,weatherlink.com 1.10,2013-05-10 11:34:00,
2013-05-10 07:49:00,56.2,50.0,29.92,SSW,213,0.0,-999.0,81,-99.99,,,0.00,weatherlink.com 1.10,2013-05-10 11:49:00,
2013-05-10 08:04:00,56.9,51.0,29.92,SW,227,3.0,-999.0,81,-99.99,,,0.00,weatherlink.com 1.10,2013-05-10 12:04:00,
2013-05-10 08:19:00,57.2,51.0,29.93,WNW,299,0.0,-999.0,79,-99.99,,,0.00,weatherlink.com 1.10,2013-05-10 12:19:00,
2013-05-10 08:34:00,57.0,51.0,29.93,SSW,192,2.0,-999.0,79,-99.99,,,0.00,weatherlink.com 1.10,2013-05-10 12:34:00,
2013-05-10 08:49:00,56.9,50.0,29.93,SW,220,7.0,-999.0,78,-99.99,,,0.00,weatherlink.com 1.10,2013-05-10 12:49:00,
2013-05-10 09:04:00,58.6,51.0,29.92,ESE,109,2.0,-999.0,76,-99.99,,,0.00,weatherlink.com 1.10,2013-05-10 13:04:00,
2013-05-10 09:19:00,59.3,51.0,29.92,NW,323,1.0,-999.0,74,-99.99,,,0.00,weatherlink.com 1.10,2013-05-10 13:19:00,
2013-05-10 09:34:00,60.4,51.0,29.91,SSE,168,3.0,-999.0,71,-99.99,,,0.00,weatherlink.com 1.10,2013-05-10 13:34:00,
2013-05-10 09:49:00,61.3,51.0,29.91,SSW,213,4.0,-999.0,68,-99.99,,,0.00,weatherlink.com 1.10,2013-05-10 13:49:00,
2013-05-10 10:04:00,61.6,51.0,29.91,SSW,207,2.0,-999.0,68,-99.99,,,0.00,weatherlink.com 1.10,2013-05-10 14:04:00,
2013-05-10 10:19:00,61.8,52.0,29.91,SW,227,9.0,-999.0,70,-99.99,,,0.00,weatherlink.com 1.10,2013-05-10 14:19:00,
2013-05-10 10:34:00,61.3,51.0,29.92,SSW,200,7.0,-999.0,69,-99.99,,,0.00,weatherlink.com 1.10,2013-05-10 14:34:00,
2013-05-10 10:49:00,62.4,50.0,29.91,SW,216,9.0,-999.0,65,-99.99,,,0.00,weatherlink.com 1.10,2013-05-10 14:49:00,
2013-05-10 11:04:00,62.6,52.0,29.91,South,173,3.0,-999.0,68,-99.99,,,0.00,weatherlink.com 1.10,2013-05-10 15:04:00,
2013-05-10 11:19:00,62.6,51.0,29.91,South,188,10.0,-999.0,65,-99.99,,,0.00,weatherlink.com 1.10,2013-05-10 15:19:00,
2013-05-10 11:34:00,63.2,52.0,29.92,WSW,248,1.0,-999.0,66,-99.99,,,0.00,weatherlink.com 1.10,2013-05-10 15:34:00,
2013-05-10 11:49:00,62.3,49.0,29.91,SSW,205,2.0,-999.0,63,-99.99,,,0.00,weatherlink.com 1.10,2013-05-10 15:49:00,
2013-05-10 12:04:00,62.3,50.0,29.91,WSW,248,4.0,-999.0,65,-99.99,,,0.00,weatherlink.com 1.10,2013-05-10 16:04:00,
2013-05-10 12:19:00,62.4,50.0,29.90,West,265,6.0,-999.0,64,-99.99,,,0.00,weatherlink.com 1.10,2013-05-10 16:19:00,
2013-05-10 12:34:00,62.4,51.0,29.91,East,92,4.0,-999.0,66,-99.99,,,0.00,weatherlink.com 1.10,2013-05-10 16:34:00,
2013-05-10 12:49:00,62.7,51.0,29.91,South,190,7.0,-999.0,65,-99.99,,,0.00,weatherlink.com 1.10,2013-05-10 16:49:00,
2013-05-10 13:04:00,63.5,52.0,29.90,WNW,291,2.0,-999.0,66,-99.99,,,0.00,weatherlink.com 1.10,2013-05-10 17:04:00,
2013-05-10 13:19:00,62.6,51.0,29.91,ESE,106,2.0,-999.0,65,-99.99,,,0.00,weatherlink.com 1.10,2013-05-10 17:19:00,
2013-05-10 13:34:00,61.6,51.0,29.91,WSW,238,6.0,-999.0,69,-99.99,,,0.00,weatherlink.com 1.10,2013-05-10 17:34:00,
2013-05-10 13:49:00,60.2,54.0,29.91,SW,232,2.0,-999.0,79,-99.99,,,0.01,weatherlink.com 1.10,2013-05-10 17:49:00,
2013-05-10 14:04:00,58.1,53.0,29.92,NW,323,4.0,-999.0,83,-99.99,,,0.01,weatherlink.com 1.10,2013-05-10 18:04:00,
2013-05-10 14:19:00,58.0,54.0,29.92,SSE,155,1.0,-999.0,85,-99.99,,,0.03,weatherlink.com 1.10,2013-05-10 18:19:00,
2013-05-10 14:34:00,57.0,54.0,29.92,NNW,348,2.0,-999.0,90,-99.99,,,0.05,weatherlink.com 1.10,2013-05-10 18:34:00,
2013-05-10 14:49:00,58.9,57.0,29.92,NE,43,1.0,-999.0,94,-99.99,,,0.05,weatherlink.com 1.10,2013-05-10 18:49:00,
2013-05-10 15:04:00,58.4,55.0,29.92,NW,305,2.0,-999.0,88,-99.99,,,0.05,weatherlink.com 1.10,2013-05-10 19:04:00,
2013-05-10 15:19:00,60.4,56.0,29.89,East,85,1.0,-999.0,86,-99.99,,,0.05,weatherlink.com 1.10,2013-05-10 19:19:00,
2013-05-10 15:34:00,59.9,55.0,29.89,WNW,298,0.0,-999.0,83,-99.99,,,0.05,weatherlink.com 1.10,2013-05-10 19:34:00,
2013-05-10 15:49:00,58.3,54.0,29.90,SW,221,2.0,-999.0,86,-99.99,,,0.06,weatherlink.com 1.10,2013-05-10 19:49:00,
2013-05-10 16:04:00,57.2,55.0,29.90,SSW,207,0.0,-999.0,91,-99.99,,,0.10,weatherlink.com 1.10,2013-05-10 20:04:00,
2013-05-10 16:19:00,56.5,54.0,29.89,North,355,4.0,-999.0,92,-99.99,,,0.10,weatherlink.com 1.10,2013-05-10 20:19:00,
2013-05-10 16:34:00,57.0,55.0,29.89,NE,35,3.0,-999.0,91,-99.99,,,0.11,weatherlink.com 1.10,2013-05-10 20:34:00,
2013-05-10 16:49:00,57.5,55.0,29.88,NW,315,2.0,-999.0,90,-99.99,,,0.11,weatherlink.com 1.10,2013-05-10 20:49:00,
2013-05-10 17:05:00,57.6,55.0,29.88,WSW,246,7.0,-999.0,92,-99.99,,,0.11,weatherlink.com 1.10,2013-05-10 21:05:00,
2013-05-10 17:20:00,57.3,54.0,29.88,NW,308,1.0,-999.0,89,-99.99,,,0.11,weatherlink.com 1.10,2013-05-10 21:20:00,
2013-05-10 17:35:00,56.7,54.0,29.88,NNE,13,0.0,-999.0,89,-99.99,,,0.11,weatherlink.com 1.10,2013-05-10 21:35:00,
2013-05-10 17:50:00,56.5,54.0,29.88,SE,134,0.0,-999.0,90,-99.99,,,0.11,weatherlink.com 1.10,2013-05-10 21:50:00,
2013-05-10 18:05:00,56.5,53.0,29.87,WNW,294,1.0,-999.0,89,-99.99,,,0.11,weatherlink.com 1.10,2013-05-10 22:05:00,
2013-05-10 18:20:00,56.5,53.0,29.88,SW,228,5.0,-999.0,89,-99.99,,,0.11,weatherlink.com 1.10,2013-05-10 22:20:00,
2013-05-10 18:35:00,56.5,53.0,29.87,South,169,2.0,-999.0,88,-99.99,,,0.11,weatherlink.com 1.10,2013-05-10 22:35:00,
2013-05-10 18:50:00,56.5,53.0,29.87,West,280,1.0,-999.0,89,-99.99,,,0.11,weatherlink.com 1.10,2013-05-10 22:50:00,
2013-05-10 19:05:00,56.6,54.0,29.85,West,279,0.0,-999.0,89,-99.99,,,0.11,weatherlink.com 1.10,2013-05-10 23:05:00,
2013-05-10 19:20:00,56.5,53.0,29.83,West,279,0.0,-999.0,88,-99.99,,,0.11,weatherlink.com 1.10,2013-05-10 23:20:00,
2013-05-10 19:35:00,56.2,53.0,29.85,WSW,242,0.0,-999.0,89,-99.99,,,0.11,weatherlink.com 1.10,2013-05-10 23:35:00,
2013-05-10 19:50:00,56.0,53.0,29.84,WSW,242,1.0,-999.0,89,-99.99,,,0.11,weatherlink.com 1.10,2013-05-10 23:50:00,
2013-05-10 20:05:00,56.2,53.0,29.85,SSW,207,0.0,-999.0,88,-99.99,,,0.11,weatherlink.com 1.10,2013-05-11 00:05:00,
2013-05-10 20:20:00,56.0,53.0,29.85,North,360,4.0,-999.0,89,-99.99,,,0.11,weatherlink.com 1.10,2013-05-11 00:20:00,
2013-05-10 20:35:00,55.7,53.0,29.86,NE,46,0.0,-999.0,90,-99.99,,,0.11,weatherlink.com 1.10,2013-05-11 00:35:00,
2013-05-10 20:50:00,55.4,52.0,29.85,SW,225,0.0,-999.0,89,-99.99,,,0.11,weatherlink.com 1.10,2013-05-11 00:50:00,
2013-05-10 21:05:00,55.1,52.0,29.86,SE,130,1.0,-999.0,90,-99.99,,,0.11,weatherlink.com 1.10,2013-05-11 01:05:00,
2013-05-10 21:20:00,55.1,52.0,29.85,SSW,208,0.0,-999.0,90,-99.99,,,0.11,weatherlink.com 1.10,2013-05-11 01:20:00,
2013-05-10 21:35:00,55.0,52.0,29.85,SSW,207,0.0,-999.0,89,-99.99,,,0.11,weatherlink.com 1.10,2013-05-11 01:35:00,
2013-05-10 21:50:00,54.8,51.0,29.84,WNW,294,3.0,-999.0,88,-99.99,,,0.11,weatherlink.com 1.10,2013-05-11 01:50:00,
2013-05-10 22:05:00,54.8,51.0,29.85,NE,36,0.0,-999.0,88,-99.99,,,0.11,weatherlink.com 1.10,2013-05-11 02:05:00,
2013-05-10 22:20:00,54.7,51.0,29.84,ESE,109,1.0,-999.0,88,-99.99,,,0.11,weatherlink.com 1.10,2013-05-11 02:20:00,
2013-05-10 22:35:00,54.5,51.0,29.84,East,101,0.0,-999.0,89,-99.99,,,0.11,weatherlink.com 1.10,2013-05-11 02:35:00,
2013-05-10 22:50:00,54.5,50.0,29.84,SW,217,0.0,-999.0,86,-99.99,,,0.11,weatherlink.com 1.10,2013-05-11 02:50:00,
2013-05-10 23:05:00,54.2,51.0,29.84,WSW,244,0.0,-999.0,89,-99.99,,,0.11,weatherlink.com 1.10,2013-05-11 03:05:00,
2013-05-10 23:20:00,53.5,51.0,29.85,SW,222,5.0,-999.0,92,-99.99,,,0.11,weatherlink.com 1.10,2013-05-11 03:20:00,
2013-05-10 23:35:00,53.2,51.0,29.85,SSW,211,1.0,-999.0,93,-99.99,,,0.11,weatherlink.com 1.10,2013-05-11 03:35:00,
2013-05-10 23:50:00,53.1,52.0,29.86,SW,228,5.0,-999.0,95,-99.99,,,0.14,weatherlink.com 1.10,2013-05-11 03:50:00,